Kalamazoo, MI

9:49 AM EST on February 23, 2017 (GMT -0500)
Kalamazoo-Battle Creek International

Weather History for KAZO - March, 2013

Change the Weather History Date:

Wednesday, March 27, 2013

  Actual Average Record
Temperature  
Mean Temperature 38 °F 41 °F  
Max Temperature 46 °F 51 °F 78 °F (2007)
Min Temperature 29 °F 31 °F 5 °F (1965)
Degree Days  
Heating Degree Days 27 24  
Month to date heating degree days 925 792  
Since 1 July heating degree days 5475 5565  
Cooling Degree Days 0 0  
Month to date cooling degree days 0 0  
Year to date cooling degree days 0 0  
Moisture  
Dew Point 24 °F    
Average Humidity 65    
Maximum Humidity 92    
Minimum Humidity 37    
Precipitation  
Precipitation 0.00 in 0.08 in 0.75 in (1985)
Month to date precipitation 0.61 1.95  
Year to date precipitation 5.27 5.19  
Sea Level Pressure  
Sea Level Pressure 30.25 in    
Wind  
Wind Speed 11 mph (WNW)    
Max Wind Speed 23 mph    
Max Gust Speed 30 mph    
Visibility 10 miles    
Events      
T = Trace of Precipitation, MM = Missing Value Source: NWS Daily Summary

Daily Weather History Graph

Daily Weather History Graph

Search for Another Location

Airport or City:

Trip Planner

Search our weather history database for the weather conditions in past years. The results will help you decide how hot, cold, wet, or windy it might be!

Date:

Astronomy

Mar. 27, 2013 Rise Set
Actual Time 7:32 AM EDT 8:02 PM EDT
Civil Twilight 7:04 AM EDT 8:30 PM EDT
Nautical Twilight 6:31 AM EDT 9:04 PM EDT
Astronomical Twilight 5:57 AM EDT 9:38 PM EDT
Moon 8:47 PM EDT (3/27) 7:22 AM EDT (3/27)
Length of Visible Light 13h 25m
Length of Day
12h 29m
Full, 100% of the Moon is Illuminated
Mar 27
Full
Apr 3
Last Quarter
Apr 10
New
Apr 18
First Quarter
Apr 25
Full

Hourly Weather History & Observations

Time (EDT) Temp. Windchill Dew Point Humidity Pressure Visibility Wind Dir Wind Speed Gust Speed Precip Events Conditions
12:53 AM 34.0 °F 25.5 °F 28.9 °F 82% 30.20 in 10.0 mi NW 11.5 mph - N/A   Overcast
1:53 AM 34.0 °F 26.6 °F 28.0 °F 79% 30.21 in 10.0 mi WNW 9.2 mph - N/A   Overcast
2:53 AM 34.0 °F 27.2 °F 27.0 °F 75% 30.21 in 10.0 mi WNW 8.1 mph - N/A   Overcast
3:53 AM 32.0 °F 25.6 °F 26.1 °F 79% 30.22 in 10.0 mi WNW 6.9 mph - N/A   Mostly Cloudy
4:53 AM 30.9 °F 25.2 °F 27.0 °F 85% 30.22 in 10.0 mi West 5.8 mph - N/A   Scattered Clouds
5:53 AM 30.0 °F 24.1 °F 27.0 °F 88% 30.23 in 10.0 mi WNW 5.8 mph - N/A   Scattered Clouds
6:53 AM 30.0 °F 25.2 °F 27.0 °F 88% 30.23 in 10.0 mi WNW 4.6 mph - N/A   Clear
7:53 AM 28.9 °F 23.9 °F 27.0 °F 92% 30.25 in 10.0 mi West 4.6 mph - N/A   Clear
8:53 AM 34.0 °F 28.0 °F 30.9 °F 89% 30.25 in 10.0 mi WNW 6.9 mph - N/A   Clear
9:05 AM 35.6 °F 28.0 °F 30.2 °F 81% 30.23 in 10.0 mi WNW 10.4 mph - N/A   Scattered Clouds
9:53 AM 37.0 °F 29.3 °F 30.0 °F 76% 30.26 in 10.0 mi NW 11.5 mph - N/A   Partly Cloudy
10:53 AM 42.1 °F 33.9 °F 24.1 °F 49% 30.26 in 10.0 mi NNW 17.3 mph 21.9 mph N/A   Partly Cloudy
11:53 AM 42.1 °F 33.9 °F 21.9 °F 45% 30.26 in 10.0 mi NW 17.3 mph 25.3 mph N/A   Scattered Clouds
12:53 PM 44.1 °F 36.8 °F 19.9 °F 38% 30.26 in 10.0 mi NNW 16.1 mph 28.8 mph N/A   Scattered Clouds
1:53 PM 44.1 °F 37.1 °F 19.9 °F 38% 30.26 in 10.0 mi NW 15.0 mph 24.2 mph N/A   Scattered Clouds
2:53 PM 45.0 °F 36.9 °F 21.0 °F 39% 30.25 in 10.0 mi West 20.7 mph 25.3 mph N/A   Scattered Clouds
3:53 PM 45.0 °F 37.6 °F 21.9 °F 40% 30.25 in 10.0 mi NW 17.3 mph 27.6 mph N/A   Scattered Clouds
4:53 PM 43.0 °F 35.1 °F 21.0 °F 42% 30.25 in 10.0 mi WNW 17.3 mph 26.5 mph N/A   Scattered Clouds
5:53 PM 43.0 °F 35.1 °F 21.0 °F 42% 30.25 in 10.0 mi NW 17.3 mph 25.3 mph N/A   Partly Cloudy
6:53 PM 39.9 °F 31.4 °F 19.9 °F 45% 30.26 in 10.0 mi WNW 16.1 mph - N/A   Clear
7:53 PM 37.9 °F 28.9 °F 18.0 °F 45% 30.27 in 10.0 mi WNW 16.1 mph - N/A   Clear
8:53 PM 35.1 °F 29.3 °F 19.0 °F 52% 30.28 in 10.0 mi NW 6.9 mph - N/A   Clear
9:53 PM 34.0 °F 26.6 °F 21.0 °F 59% 30.29 in 10.0 mi WNW 9.2 mph - N/A   Clear
10:53 PM 32.0 °F 24.8 °F 21.9 °F 66% 30.29 in 10.0 mi West 8.1 mph - N/A   Clear
11:53 PM 32.0 °F 26.4 °F 21.9 °F 66% 30.29 in 10.0 mi West 5.8 mph - N/A   Clear